EW8735 Weather Reports


Display with metric or nautical units.
time (UTC)temp
F
wind
direction
speed
MPH
gust
MPH
rain 1hr
in
rain 24hr
in
rain mn
in
humidity
%
barometer
mb
20260509191522 68 337 0.0 0.0 0.00 0.00 0.00 43 1017.0
20260509190021 68 338 0.0 0.0 0.00 0.00 0.00 45 1017.2
20260509184519 68 341 0.0 0.0 0.00 0.00 0.00 44 1017.4
20260509183024 69 341 0.0 0.0 0.00 0.00 0.00 45 1017.5
20260509181515 67 359 0.0 0.0 0.00 0.00 0.00 45 1017.6
20260509180014 67 341 0.0 0.0 0.00 0.00 0.00 46 1017.8
20260509174511 66 341 0.0 0.0 0.00 0.00 0.00 47 1017.9
20260509173008 65 339 0.0 0.0 0.00 0.00 0.00 49 1017.9
20260509171507 65 359 0.0 0.0 0.00 0.00 0.00 48 1017.8
20260509170003 63 339 0.0 0.0 0.00 0.00 0.00 49 1018.1
20260509164604 63 359 0.0 0.0 0.00 0.00 0.00 51 1018.2
20260509163101 62 359 0.0 0.0 0.00 0.00 0.00 52 1018.3
20260509161554 61 359 0.0 0.0 0.00 0.00 0.00 54 1018.4
20260509160056 60 359 0.0 0.0 0.00 0.00 0.00 56 1018.3
20260509154554 59 359 0.0 0.0 0.00 0.00 0.00 57 1018.4
20260509153046 58 359 0.0 0.0 0.00 0.00 0.00 59 1018.3
20260509151545 57 318 0.0 0.0 0.00 0.00 0.00 59 1018.3
20260509150043 57 337 0.0 0.0 0.00 0.00 0.00 64 1018.3
20260509144542 57 213 0.0 0.0 0.00 0.00 0.00 63 1018.3
20260509143038 56 218 0.0 0.0 0.00 0.00 0.00 71 1018.2
20260509141536 52 218 0.0 0.0 0.00 0.00 0.00 78 1018.2
20260509140036 50 217 0.0 0.0 0.00 0.00 0.00 78 1018.3
20260509134534 49 218 0.0 0.0 0.00 0.00 0.00 80 1018.2
20260509133033 47 189 0.0 0.0 0.00 0.00 0.00 79 1018.3
20260509131532 47 187 0.0 0.0 0.00 0.00 0.00 79 1018.2
20260509130031 45 212 0.0 0.0 0.00 0.00 0.00 81 1018.1
20260509124529 45 212 0.0 0.0 0.00 0.00 0.00 81 1017.9
20260509123029 45 213 0.0 0.0 0.00 0.00 0.00 80 1017.9
20260509121530 45 213 0.0 0.0 0.00 0.00 0.00 81 1018.0
20260509120027 45 213 0.0 0.0 0.00 0.00 0.00 82 1017.8
20260509114524 45 212 0.0 0.0 0.00 0.00 0.00 80 1017.7
20260509113023 46 213 0.0 0.0 0.00 0.00 0.00 79 1018.0
20260509111521 46 212 0.0 0.0 0.00 0.00 0.00 79 1017.9
20260509110020 46 212 0.0 0.0 0.00 0.00 0.00 78 1017.9
20260509104532 47 212 0.0 0.0 0.00 0.00 0.00 76 1018.0
20260509103016 47 212 0.0 0.0 0.00 0.00 0.00 77 1017.7
20260509101515 47 213 0.0 0.0 0.00 0.00 0.00 75 1017.7
20260509100011 49 212 0.0 0.0 0.00 0.00 0.00 73 1017.9
20260509094509 48 213 0.0 0.0 0.00 0.00 0.00 74 1017.6
20260509093009 50 212 0.0 0.0 0.00 0.00 0.00 70 1017.7
20260509091506 51 212 0.0 0.0 0.00 0.00 0.00 69 1017.5
20260509090007 49 213 0.0 0.0 0.00 0.00 0.00 73 1017.5
20260509084511 49 212 0.0 0.0 0.00 0.00 0.00 73 1017.5
20260509083004 49 212 0.0 0.0 0.00 0.00 0.00 74 1017.5
20260509081601 49 212 0.0 0.0 0.00 0.00 0.00 72 1017.5
20260509080100 50 212 0.0 0.0 0.00 0.00 0.00 69 1017.3
20260509074554 51 212 0.0 0.0 0.00 0.00 0.00 69 1017.2
20260509073052 51 213 0.0 0.0 0.00 0.00 0.00 68 1017.1
20260509071548 53 212 0.0 0.0 0.00 0.00 0.00 64 1016.9
20260509070046 54 212 0.0 0.0 0.00 0.00 0.00 61 1016.8
20260509064546 55 212 0.0 0.0 0.00 0.00 0.00 58 1016.7
20260509063043 56 212 0.0 0.0 0.00 0.00 0.00 56 1016.7
20260509061543 56 226 0.0 0.0 0.00 0.00 0.00 56 1016.6
20260509060043 57 225 0.0 0.0 0.00 0.00 0.00 54 1016.5
20260509054542 56 218 0.0 0.0 0.00 0.00 0.00 54 1016.6
20260509053041 58 221 0.0 0.0 0.00 0.00 0.00 52 1016.4
20260509051540 58 213 0.0 0.0 0.00 0.00 0.00 49 1016.3
20260509050043 56 216 0.0 0.0 0.00 0.00 0.00 53 1016.0
20260509044536 59 231 0.0 0.0 0.00 0.00 0.00 47 1015.9
20260509043035 60 241 0.0 0.0 0.00 0.00 0.00 47 1015.7
20260509041533 61 239 0.0 0.0 0.00 0.00 0.00 44 1015.5
20260509040032 61 235 0.0 0.0 0.00 0.00 0.00 43 1015.3
20260509034529 61 222 0.0 0.0 0.00 0.00 0.00 43 1015.0
20260509033027 61 221 0.0 0.0 0.00 0.00 0.00 43 1014.8
20260509031528 61 220 0.0 0.0 0.00 0.00 0.00 43 1014.4
20260509030023 63 223 0.0 0.0 0.00 0.00 0.00 40 1013.9
20260509024520 66 247 0.0 0.0 0.00 0.00 0.00 36 1013.8
20260509023022 67 258 0.0 0.0 0.00 0.00 0.00 35 1013.6
20260509021520 67 257 0.0 0.0 0.00 0.00 0.00 35 1013.3
20260509020019 68 238 0.0 0.0 0.00 0.00 0.00 33 1013.1
20260509014535 69 248 0.0 0.0 0.00 0.00 0.00 32 1012.9
20260509013017 70 235 0.0 0.0 0.00 0.00 0.00 30 1012.7
20260509011518 71 258 0.0 0.0 0.00 0.00 0.00 29 1012.8
20260509010018 72 258 0.0 0.0 0.00 0.00 0.00 27 1012.9
20260509004517 71 256 0.0 0.0 0.00 0.00 0.00 26 1013.0
20260509003027 73 265 0.0 0.0 0.00 0.00 0.00 27 1013.0
20260509001518 73 259 0.0 0.0 0.00 0.00 0.00 25 1012.9
20260509000016 73 268 0.0 0.0 0.00 0.00 0.00 25 1012.9
20260508234516 73 359 0.0 0.0 0.00 0.00 0.00 25 1012.9
20260508233015 73 243 0.0 0.0 0.00 0.00 0.00 23 1012.9
20260508231514 73 250 0.0 0.0 0.00 0.00 0.00 20 1013.1
20260508230014 74 288 0.0 0.0 0.00 0.00 0.00 22 1012.8
20260508224513 72 279 0.0 0.0 0.00 0.00 0.00 23 1012.9
20260508223021 74 258 0.0 0.0 0.00 0.00 0.00 25 1013.0
20260508221511 72 293 0.0 0.0 0.00 0.00 0.00 25 1012.9
20260508220011 73 262 0.0 0.0 0.00 0.00 0.00 25 1013.0
20260508214510 73 258 0.0 0.0 0.00 0.00 0.00 25 1013.0
20260508213010 73 293 0.0 0.0 0.00 0.00 0.00 30 1013.0
20260508211520 73 305 0.0 0.0 0.00 0.00 0.00 34 1013.0
20260508210009 73 319 0.0 0.0 0.00 0.00 0.00 33 1013.0
20260508204508 74 283 0.0 0.0 0.00 0.00 0.00 36 1012.7
20260508203006 75 291 0.0 0.0 0.00 0.00 0.00 32 1012.5
20260508201504 74 19 0.0 0.0 0.00 0.00 0.00 34 1012.4
20260508200003 73 303 0.0 0.0 0.00 0.00 0.00 35 1012.4
20260508194604 71 349 0.0 0.0 0.00 0.00 0.00 34 1012.5
20260508193105 70 359 0.0 0.0 0.00 0.00 0.00 37 1012.6